Погода в Цахкадзоре

Армения     40°31′57″N   44°43′00″E
темп.,
°C
ветер,
м/с
пор.,
м/с
влажн.,
%
обл.,
%
осадки,
мм/ч
давл.,
гПа
погр.,
м
7 мая, пт
пт701:00+5св3388100 0.0 101539
04:00+5св3383100 0.0 101473
07:00+6св3487100 0.0 1014134
10:00+10св436993 0.1 1014773
13:00+11св3366100 1.2 10141148
16:00+9ссз3377100 2.3 1015585
19:00+9св3382100 1.1 1016372
22:00+6св3393100 1.1 101945
8 мая, сб
сб801:00+5всв33957 0.0 102047
04:00+4св339626 0.0 102071
07:00+5св22895 0.0 102073
10:00+11юз12656 0.0 1017920
13:00+14зюз335529 0.0 10161357
16:00+15юз44519 0.0 10141240
19:00+13юз126473 0.1 101546
22:00+8всв117636 0.1 101711
9 мая, вс
вс901:00+7всв11780 0.1 101612
04:00+7юз01767 0.1 101611
07:00+8юз127449 0.0 101532
10:00+14юз475971 0.0 1012852
13:00+16юз6105346 0.0 10101488
16:00+17юз71249100 0.0 10061797
19:00+12ссз447898 1.6 1008204
22:00+6св2393100 5.3 1014237
10 мая, пн
пн1001:00+6юв1393100 1.2 1012190
04:00+6юз1196100 2.5 1010138
07:00+4з3598100 2.6 1011548
10:00−1з3497100 10.7 1020345
13:00+3сз23769 0.2 1018792
16:00+5с326819 0.2 1016961
19:00+3св33775 0.0 1017380
22:00−1св34928 0.0 102164
11 мая, вт
вт1101:00−1св349586 0.0 1021149
04:00−1св349540 0.0 1020153
07:000св339134 0.0 1020196
10:00+5с117528 0.0 1017640
13:00+10зюз45561 0.0 10151037
16:00+12зюз34500 0.0 1014900
19:00+10ссв11682 0.0 101567
22:00+3св34956 0.0 101975